Regional Weather Roundup
Issued by NWS

Home | Current Version | Previous Version | Graphics & Text | Print | Product List | Glossary On
Versions: 1 2 3 4 5 6 7 8 9 10 11 12 13 14 15 16 17 18 19 20 21 22 23 24 25 26 27 28 29 30 31 32 33 34 35 36 37 38 39 40 41 42 43 44 45 46 47 48 49 50
000
ASUS43 KTOP 192308
RWRKS

WEATHER ROUNDUP FOR KANSAS
NATIONAL WEATHER SERVICE GOODLAND KS
600 PM CDT TUE AUG 19 2014

NOTE:  "FAIR" INDICATES FEW OR NO CLOUDS BELOW 12,000 FEET WITH NO
SIGNIFICANT WEATHER AND/OR OBSTRUCTIONS TO VISIBILITY.

KSZ001>006-013>018-027>032-041>047-200000-
NORTHWEST KANSAS

CITY           SKY/WX    TMP DP  RH WIND       PRES   REMARKS
GOODLAND       SUNNY     96  46  18 S15       29.78F
HAYS           SUNNY     95  61  31 S24G30    29.77F HX  95
HILL CITY      MOSUNNY   97  56  25 S17G24    29.75F HX  95
RUSSELL        MOSUNNY   95  61  32 S17G25    29.76S HX  95
$$

KSZ061>065-074>080-084>089-200000-
SOUTHWEST KANSAS

CITY           SKY/WX    TMP DP  RH WIND       PRES   REMARKS
DODGE CITY     MOSUNNY   91  59  33 S21G26    29.82F
ELKHART          N/A     92  57  30 SE15        N/A
GARDEN CITY    MOSUNNY   93  56  28 S18G28    29.80F
GREAT BEND     SUNNY     97  63  32 S20       29.78R HX  98
LIBERAL        SUNNY     95  55  26 S20G28    29.83R
PRATT          MOSUNNY   91  55  29 S16G25    29.82S
$$

KSZ066>073-081>083-090>101-200000-
SOUTHEAST KANSAS

CITY           SKY/WX    TMP DP  RH WIND       PRES   REMARKS
CHANUTE        MOSUNNY   96  66  37 S14       29.81S HX  99
COFFEYVILLE    MOSUNNY   95  67  39 S10       29.80F HX  99
HUTCHINSON     SUNNY     96  62  32 S15       29.79S HX  97
MEDICINE LODGE   N/A     95  62  33 S14G21    29.78F HX  96
NEWTON         SUNNY     93  63  36 S15G22    29.84S
PARSONS        MOSUNNY   94  68  42 S12       29.82F HX  98
WICHITA INTL   MOSUNNY   94  64  37 S18       29.79S HX  95
WICHITA JABRA  SUNNY     92  66  42 S14       29.80F
WICHITA MCCONL SUNNY     91  67  44 SE13      29.80F HX  95
WINFIELD       MOSUNNY   92  67  43 S12G21    29.81F HX  95
$$

KSZ007>012-019>026-033>040-048>060-102>105-200000-
NORTHEAST KANSAS

CITY           SKY/WX    TMP DP  RH WIND       PRES   REMARKS
CONCORDIA      SUNNY     90  66  45 S7        29.78F
EMPORIA        MOSUNNY   94  62  34 SW12      29.78F
LAWRENCE       SUNNY     95  73  48 E6        29.78F HX 104
MANHATTAN      SUNNY     95  63  34 SE7       29.76F HX  96
MARYSVILLE     SUNNY     91  70  49 SW6       29.78S HX  97
OLATHE IND     SUNNY     94  66  39 SE6       29.80F HX  97
OLATHE EXE     SUNNY     92  65  40 S5        29.79F
SALINA         MOSUNNY   93  66  40 S12       29.77S HX  96
TOPEKA BILLARD SUNNY     95  68  41 SE6       29.77F HX  99
TOPEKA FORBES  SUNNY     96  59  29 S7        29.78F HX  95
$$


USA.gov is the U.S. government's official web portal to all federal, state and local government web resources and services.